Regional Weather Roundup
Issued by NWS Kansas City/Pleasant Hill, MO

Home | Current Version | Previous Version | Graphics & Text | Print | Product List | Glossary Off
Versions: 1 2 3 4 5 6 7 8 9 10 11 12 13 14 15 16 17 18 19 20 21 22 23 24 25 26 27 28 29 30 31 32 33 34 35 36 37 38 39 40 41 42 43 44 45 46 47 48 49 50

000
ASUS43 KEAX 230710
RWREAX

WEATHER ROUNDUP FOR EASTERN KANSAS AND NORTHWEST MISSOURI
NATIONAL WEATHER SERVICE KANSAS CITY/PLEASANT HILL MO
200 AM CDT SUN APR 23 2017

KSZ040-057-103>105-MOZ028-029-037-043-230800-
...KANSAS CITY METROPOLITAN AREA...

CITY           SKY/WX    TMP DP  RH WIND       PRES   REMARKS
K.C. INTL      CLEAR     49  30  48 N5        30.18S
K.C. DOWNTOWN  CLEAR     50  34  54 NW3       30.17F
LEES SUMMIT    CLEAR     49  32  52 N3        30.17F
OLATHE - IXD   CLEAR     42  32  67 N6        30.18F
OLATHE - OJC   CLEAR     50  31  48 N5        30.17F
LAWRENCE       CLEAR     40  36  86 CALM      30.18F

$$

MOZ001>008-011>017-020>025-030>033-038>040-044>046-053-054-230800-
...NORTHERN AND CENTRAL MISSOURI...

CITY           SKY/WX    TMP DP  RH WIND       PRES   REMARKS
ST. JOSEPH     CLEAR     37  35  92 N3        30.19F
MOSBY            N/A     39  36  87 CALM      30.18F
WHITEMAN AFB   CLEAR     43  37  79 N5        30.14F
CLINTON        CLEAR     45  37  76 N6        30.15S
SEDALIA        NOT AVBL
WARSAW         NOT AVBL
CHILLICOTHE      N/A     41  35  79 NW3       30.19S
KIRKSVILLE     CLEAR     40  34  79 N5        30.16F

$$

MOZ041-047>049-056>058-063>065-088>090-097-230800-
...EASTERN AND SOUTHERN MISSOURI...

CITY           SKY/WX    TMP DP  RH WIND       PRES   REMARKS
ST. LOUIS INTL CLEAR     50  34  54 NE9       30.09F
SPIRIT OF STL  CLEAR     42  38  85 CALM      30.09F
COLUMBIA       CLEAR     45  36  70 N9        30.12F
JEFFERSON CITY CLEAR     51  35  54 N7        30.12S
ROLLA          CLEAR     43  36  76 N5        30.07F
OSAGE BEACH    CLEAR     46  37  71 N6        30.11S
SPRINGFIELD    CLOUDY    45  42  89 NW8       30.08F
BRANSON        CLOUDY    46  45  93 CALM      30.07F
JOPLIN         PTCLDY    43  42  97 NW6       30.13F
WEST PLAINS    CLOUDY    49  41  74 N7        30.04F

$$

IAZ060-094-KSZ022-034>040-054-083-096-NEZ052-066-093-230800-
...KANSAS...SOUTHEAST NEBRASKA AND IOWA...

CITY           SKY/WX    TMP DP  RH WIND       PRES   REMARKS
TOPEKA         CLEAR     41  40  96 CALM      30.19F
MANHATTAN      CLEAR     37  35  92 CALM      30.21F
EMPORIA        CLEAR     43  37  79 NW3       30.19F
CHANUTE        CLEAR     46  36  68 N6        30.16S
WICHITA        CLEAR     46  38  73 N6        30.20F
OMAHA          CLEAR     46  36  68 CALM      30.19S
LINCOLN        CLEAR     40  34  79 CALM      30.21F
FALLS CITY     CLEAR     40  34  79 NW5       30.20R
LAMONI         CLEAR     42  33  70 W5        30.18S
DES MOINES     CLEAR     48  31  51 CALM      30.17S

$$




USA.gov is the U.S. government's official web portal to all federal, state and local government web resources and services.